AirNav   TITAN Aviation Fuels
 
 547 users online  

8TN2 Pleasant Grove Airpark
Shelbyville, Tennessee, USA

GOING TO SHELBYVILLE?


FAA INFORMATION EFFECTIVE 01 DECEMBER 2022

Location

FAA Identifier: 8TN2
Lat/Long: 35-23-56.0000N 086-33-14.0000W
35-23.933333N 086-33.233333W
35.3988889,-86.5538889
(estimated)
Elevation: 850 ft. / 259 m (estimated)
Variation: 02W (1995)
From city: 7 miles SW of SHELBYVILLE, TN
Time zone: UTC -6 (UTC -5 during Daylight Saving Time)
Zip code: 37160

Airport Operations

Airport use: Private use. Permission required prior to landing
Activation date: 06/1998
Control tower: no
ARTCC: MEMPHIS CENTER
FSS: NASHVILLE FLIGHT SERVICE STATION
Attendance: IREG
Wind indicator: yes
Segmented circle: no

Airport Communications

WX AWOS-3 at SYI (11 nm NE): 119.275 (931-685-4723)
WX AWOS-3 at LUG (14 nm NW): 135.775 (931-270-1014)
WX AWOS-3 at THA (15 nm E): 128.325 (931-454-2052)

Nearby radio navigation aids

VOR radial/distance  VOR name  Freq  Var
SYIr211/11.3SHELBYVILLE VOR/DME113.5501W
RQZr004/36.3ROCKET VORTAC112.2002E

 
NDB name  Hdg/Dist  Freq  Var  ID
WALTER HILL197/34.937102WFQW ..-. --.- .--

Airport Services

Runway Information

Runway 10/28

Dimensions: 3000 x 60 ft. / 914 x 18 m
Surface: turf
RUNWAY 10  RUNWAY 28
Traffic pattern: leftright
Obstructions: none35 ft. pline

Airport Ownership and Management from official FAA records

Ownership: Privately-owned
Owner: PLEASANT GROVE AIRPARK ASSN LLC
2056 HWY 130W
SHELBYVILLE, TN 37160
Phone (931) 607-9489
Manager: BLAKE BUTLER
2056 HWY 130W
SHELBYVILLE, TN 37160
Phone (931) 607-9489
BUTLERBLAKE1@GMAIL.COM

Airport Operational Statistics

Aircraft based on the field: 6
Single engine airplanes: 5
Gliders airplanes: 1
    

Additional Remarks

FOR CD CTC MEMPHIS ARTCC AT 901-368-8453/8449.

Instrument Procedures

There are no published instrument procedures at 8TN2.

Some nearby airports with instrument procedures:

KSYI - Bomar Field/Shelbyville Municipal Airport (11 nm NE)
KLUG - Ellington Airport (14 nm NW)
KTHA - Tullahoma Regional Airport/William Northern Field (15 nm E)
KFYM - Fayetteville Municipal Airport (20 nm S)
KAYX - Arnold Air Force Base (23 nm E)
 
Loc | Ops | Rwys | IFR | FBO | Links
Com | Nav | Svcs | Stats | Notes
Area around 8TN2 (Pleasant Grove Airpark)
 
Road maps at: MapQuest Bing Google
 
Aerial photo
No photo
 
Sectional chart

 
Airport distance calculator
Flying to Pleasant Grove Airpark? Find the distance to fly.

From to 8TN2

Sunrise and sunset
Times for 06-Dec-2022
 Local
(UTC-6)
 Zulu
(UTC)
Morning civil twilight06:1412:14
Sunrise06:4212:42
Sunset16:3222:32
Evening civil twilight17:0023:00

Current date and time
Zulu (UTC)  06-Dec-2022 06:12:37
Local (UTC-6)  06-Dec-2022 00:12:37
 
METAR
KSYI 
11nm NE 
060555Z AUTO 17010KT 3SM BR OVC005 14/14 A2994 RMK A01 P0005
KLUG 
14nm NW 
060555Z AUTO 18010KT 9SM OVC005 14/14 A2993 RMK A01 P0002
KTHA 
15nm E 
060555Z AUTO 16006KT 7SM BKN003 OVC007 12/12 A2997 RMK A01
KFYM 
20nm S 
060555Z AUTO 17006KT 3SM BR OVC003 13/13 A2999 RMK A01
TAF
NOTAMs
Click for the latest NOTAMs
NOTAMs are issued by the DoD/FAA and will open in a separate window not controlled by AirNav.

 

 
 

Would you like to see your business listed on this page?

 If your business provides an interesting product or service to pilots, flight crews, aircraft, or users of the Pleasant Grove Airpark, you should consider listing it here.  To start the listing process, click on the button below
 
Add a business
 

Other Pages about Pleasant Grove Airpark

Update a link
 
Copyright © AirNav, LLC. All rights reserved. Privacy Policy  Contact